{"data":{"norad_id":46713,"intl_designator":"2020-073AV","name":"STARLINK-1815","alt_names":[],"object_type":"PAYLOAD","status":"ACTIVE","operator":null,"country":"US","launch_date":"2020-10-18","launch_site_code":"AFETR","launch_vehicle":null,"mission":null,"orbit_class":"UNKNOWN","rcs_meters":null,"size_class":null,"mass_kg":null,"dimensions":null,"purposes":["comms"],"wikipedia_slug":null,"has_3d_model":false,"image_url":null,"decayed_at":null,"tle_current":{"epoch":"2026-06-16T23:16:35.757984Z","epoch_age_seconds":8275819,"freshness":"OLD","line1":"1 46713U 20073AV  26167.96985831  .07216199  12294-4  63696-3 0  9994","line2":"2 46713  53.0216  60.4470 0010861 263.6085  96.3723 16.38175792313429","mean_motion":16.38175792,"eccentricity":0.0010861,"inclination_deg":53.0216,"raan_deg":60.447,"arg_perigee_deg":263.6085,"mean_anomaly_deg":96.3723,"bstar":0.00063696,"rev_number":31342,"period_min":87.902654100507,"perigee_km":163.54700576119,"apogee_km":177.77230185259,"semimajor_km":6548.7966538069,"source":"CELESTRAK","updated_at":"2026-06-17T09:00:45.041816Z"}}}